owner,sensor,date,latitude,longitude,vertical_datum,mass_concentration_of_oxygen_in_sea_water,qcFlag 
TCOON,ioos:station:TCOON:072:1,2019-06-01T00:30:00Z,27.8392,-97.4440,1.0,8.41,11111222 
TCOON,ioos:station:TCOON:072:1,2019-06-01T01:30:00Z,27.8392,-97.4440,1.0,7.75,11111222 
TCOON,ioos:station:TCOON:072:1,2019-06-01T02:30:00Z,27.8392,-97.4440,1.0,7.58,11111222 
TCOON,ioos:station:TCOON:072:1,2019-06-01T03:30:00Z,27.8392,-97.4440,1.0,7.24,11111222 
TCOON,ioos:station:TCOON:072:1,2019-06-01T04:30:00Z,27.8392,-97.4440,1.0,6.94,11111222 
TCOON,ioos:station:TCOON:072:1,2019-06-01T05:30:00Z,27.8392,-97.4440,1.0,6.67,11111222 
TCOON,ioos:station:TCOON:072:1,2019-06-01T06:30:00Z,27.8392,-97.4440,1.0,6.46,11111222 
TCOON,ioos:station:TCOON:072:1,2019-06-01T07:30:00Z,27.8392,-97.4440,1.0,6.53,11111222 
TCOON,ioos:station:TCOON:072:1,2019-06-01T08:30:00Z,27.8392,-97.4440,1.0,6.32,11111222 
TCOON,ioos:station:TCOON:072:1,2019-06-01T09:30:00Z,27.8392,-97.4440,1.0,6.3,11111222 
TCOON,ioos:station:TCOON:072:1,2019-06-01T10:30:00Z,27.8392,-97.4440,1.0,5.99,11111222 
TCOON,ioos:station:TCOON:072:1,2019-06-01T11:30:00Z,27.8392,-97.4440,1.0,5.36,11111222 
TCOON,ioos:station:TCOON:072:1,2019-06-01T12:30:00Z,27.8392,-97.4440,1.0,5.38,11111222 
TCOON,ioos:station:TCOON:072:1,2019-06-01T13:30:00Z,27.8392,-97.4440,1.0,5.42,11111222 
TCOON,ioos:station:TCOON:072:1,2019-06-01T14:30:00Z,27.8392,-97.4440,1.0,4.89,11111222 
TCOON,ioos:station:TCOON:072:1,2019-06-01T15:30:00Z,27.8392,-97.4440,1.0,5.8,11111222 
TCOON,ioos:station:TCOON:072:1,2019-06-01T16:30:00Z,27.8392,-97.4440,1.0,6.18,11111222 
TCOON,ioos:station:TCOON:072:1,2019-06-01T17:30:00Z,27.8392,-97.4440,1.0,6.63,11111222 
TCOON,ioos:station:TCOON:072:1,2019-06-01T18:30:00Z,27.8392,-97.4440,1.0,6.96,11111222 
TCOON,ioos:station:TCOON:072:1,2019-06-01T19:30:00Z,27.8392,-97.4440,1.0,7.04,11111222 
TCOON,ioos:station:TCOON:072:1,2019-06-01T20:30:00Z,27.8392,-97.4440,1.0,6.9,11111222 
TCOON,ioos:station:TCOON:072:1,2019-06-01T21:30:00Z,27.8392,-97.4440,1.0,7.76,11111222 
TCOON,ioos:station:TCOON:072:1,2019-06-01T22:30:00Z,27.8392,-97.4440,1.0,7.66,11111222 
TCOON,ioos:station:TCOON:072:1,2019-06-01T23:30:00Z,27.8392,-97.4440,1.0,7.45,11111222 
TCOON,ioos:station:TCOON:072:1,2019-06-02T00:30:00Z,27.8392,-97.4440,1.0,7.07,11111222 
TCOON,ioos:station:TCOON:072:1,2019-06-02T01:30:00Z,27.8392,-97.4440,1.0,7.15,11111222 
TCOON,ioos:station:TCOON:072:1,2019-06-02T02:30:00Z,27.8392,-97.4440,1.0,6.66,11111222 
TCOON,ioos:station:TCOON:072:1,2019-06-02T03:30:00Z,27.8392,-97.4440,1.0,6.71,11111222 
TCOON,ioos:station:TCOON:072:1,2019-06-02T04:30:00Z,27.8392,-97.4440,1.0,6.57,11111222 
TCOON,ioos:station:TCOON:072:1,2019-06-02T05:30:00Z,27.8392,-97.4440,1.0,6.52,11111222 
TCOON,ioos:station:TCOON:072:1,2019-06-02T06:30:00Z,27.8392,-97.4440,1.0,6.37,11111222 
TCOON,ioos:station:TCOON:072:1,2019-06-02T07:30:00Z,27.8392,-97.4440,1.0,6.16,11111222 
TCOON,ioos:station:TCOON:072:1,2019-06-02T08:30:00Z,27.8392,-97.4440,1.0,6.1,11111222 
TCOON,ioos:station:TCOON:072:1,2019-06-02T09:30:00Z,27.8392,-97.4440,1.0,6.0,11111222 
TCOON,ioos:station:TCOON:072:1,2019-06-02T10:30:00Z,27.8392,-97.4440,1.0,6.1,11111222 
TCOON,ioos:station:TCOON:072:1,2019-06-02T11:30:00Z,27.8392,-97.4440,1.0,5.94,11111222 
TCOON,ioos:station:TCOON:072:1,2019-06-02T12:30:00Z,27.8392,-97.4440,1.0,5.43,11111222 
TCOON,ioos:station:TCOON:072:1,2019-06-02T13:30:00Z,27.8392,-97.4440,1.0,5.85,11111222 
TCOON,ioos:station:TCOON:072:1,2019-06-02T14:30:00Z,27.8392,-97.4440,1.0,5.8,11111222 
TCOON,ioos:station:TCOON:072:1,2019-06-02T15:30:00Z,27.8392,-97.4440,1.0,5.9,11111222 
TCOON,ioos:station:TCOON:072:1,2019-06-02T16:30:00Z,27.8392,-97.4440,1.0,6.34,11111222 
TCOON,ioos:station:TCOON:072:1,2019-06-02T17:30:00Z,27.8392,-97.4440,1.0,6.56,11111222 
TCOON,ioos:station:TCOON:072:1,2019-06-02T18:30:00Z,27.8392,-97.4440,1.0,6.7,11111222 
TCOON,ioos:station:TCOON:072:1,2019-06-02T19:30:00Z,27.8392,-97.4440,1.0,6.69,11111222 
TCOON,ioos:station:TCOON:072:1,2019-06-02T20:30:00Z,27.8392,-97.4440,1.0,6.77,11111222 
TCOON,ioos:station:TCOON:072:1,2019-06-02T21:30:00Z,27.8392,-97.4440,1.0,6.87,11111222 
TCOON,ioos:station:TCOON:072:1,2019-06-02T22:30:00Z,27.8392,-97.4440,1.0,6.89,11111222 
TCOON,ioos:station:TCOON:072:1,2019-06-02T23:30:00Z,27.8392,-97.4440,1.0,6.88,11111222 
TCOON,ioos:station:TCOON:072:1,2019-06-03T00:30:00Z,27.8392,-97.4440,1.0,6.84,11111222 
TCOON,ioos:station:TCOON:072:1,2019-06-03T01:30:00Z,27.8392,-97.4440,1.0,6.75,11111222 
TCOON,ioos:station:TCOON:072:1,2019-06-03T02:30:00Z,27.8392,-97.4440,1.0,6.47,11111222 
TCOON,ioos:station:TCOON:072:1,2019-06-03T03:30:00Z,27.8392,-97.4440,1.0,6.29,11111222 
TCOON,ioos:station:TCOON:072:1,2019-06-03T04:30:00Z,27.8392,-97.4440,1.0,6.08,11111222 
TCOON,ioos:station:TCOON:072:1,2019-06-03T05:30:00Z,27.8392,-97.4440,1.0,6.04,11111222 
TCOON,ioos:station:TCOON:072:1,2019-06-03T06:30:00Z,27.8392,-97.4440,1.0,5.91,11111222 
TCOON,ioos:station:TCOON:072:1,2019-06-03T07:30:00Z,27.8392,-97.4440,1.0,5.93,11111222 
TCOON,ioos:station:TCOON:072:1,2019-06-03T08:30:00Z,27.8392,-97.4440,1.0,5.78,11111222 
TCOON,ioos:station:TCOON:072:1,2019-06-03T09:30:00Z,27.8392,-97.4440,1.0,5.64,11111222 
TCOON,ioos:station:TCOON:072:1,2019-06-03T10:30:00Z,27.8392,-97.4440,1.0,5.61,11111222 
TCOON,ioos:station:TCOON:072:1,2019-06-03T11:30:00Z,27.8392,-97.4440,1.0,5.44,11111222 
TCOON,ioos:station:TCOON:072:1,2019-06-03T12:30:00Z,27.8392,-97.4440,1.0,5.31,11111222 
TCOON,ioos:station:TCOON:072:1,2019-06-03T13:30:00Z,27.8392,-97.4440,1.0,5.34,11111222 
TCOON,ioos:station:TCOON:072:1,2019-06-03T14:30:00Z,27.8392,-97.4440,1.0,5.44,11111222 
TCOON,ioos:station:TCOON:072:1,2019-06-03T15:30:00Z,27.8392,-97.4440,1.0,5.64,11111222 
TCOON,ioos:station:TCOON:072:1,2019-06-03T16:30:00Z,27.8392,-97.4440,1.0,5.25,11111222 
TCOON,ioos:station:TCOON:072:1,2019-06-03T17:30:00Z,27.8392,-97.4440,1.0,5.5,11111222 
TCOON,ioos:station:TCOON:072:1,2019-06-03T18:30:00Z,27.8392,-97.4440,1.0,5.69,11111222 
TCOON,ioos:station:TCOON:072:1,2019-06-03T19:30:00Z,27.8392,-97.4440,1.0,6.06,11111222 
TCOON,ioos:station:TCOON:072:1,2019-06-03T20:30:00Z,27.8392,-97.4440,1.0,6.36,11111222 
TCOON,ioos:station:TCOON:072:1,2019-06-03T21:30:00Z,27.8392,-97.4440,1.0,6.51,11111222 
TCOON,ioos:station:TCOON:072:1,2019-06-03T22:30:00Z,27.8392,-97.4440,1.0,6.51,11111222 
TCOON,ioos:station:TCOON:072:1,2019-06-03T23:30:00Z,27.8392,-97.4440,1.0,6.53,11111222 
TCOON,ioos:station:TCOON:072:1,2019-06-04T00:30:00Z,27.8392,-97.4440,1.0,6.27,11111222 
TCOON,ioos:station:TCOON:072:1,2019-06-04T01:30:00Z,27.8392,-97.4440,1.0,6.16,11111222 
TCOON,ioos:station:TCOON:072:1,2019-06-04T02:30:00Z,27.8392,-97.4440,1.0,5.98,11111222 
TCOON,ioos:station:TCOON:072:1,2019-06-04T03:30:00Z,27.8392,-97.4440,1.0,5.99,11111222 
TCOON,ioos:station:TCOON:072:1,2019-06-04T04:30:00Z,27.8392,-97.4440,1.0,6.03,11111222 
TCOON,ioos:station:TCOON:072:1,2019-06-04T05:30:00Z,27.8392,-97.4440,1.0,5.96,11111222 
TCOON,ioos:station:TCOON:072:1,2019-06-04T06:30:00Z,27.8392,-97.4440,1.0,5.99,11111222 
TCOON,ioos:station:TCOON:072:1,2019-06-04T07:30:00Z,27.8392,-97.4440,1.0,5.75,11111222 
TCOON,ioos:station:TCOON:072:1,2019-06-04T08:30:00Z,27.8392,-97.4440,1.0,5.64,11111222 
TCOON,ioos:station:TCOON:072:1,2019-06-04T09:30:00Z,27.8392,-97.4440,1.0,5.49,11111222 
TCOON,ioos:station:TCOON:072:1,2019-06-04T10:30:00Z,27.8392,-97.4440,1.0,5.42,11111222 
TCOON,ioos:station:TCOON:072:1,2019-06-04T11:30:00Z,27.8392,-97.4440,1.0,5.25,11111222 
TCOON,ioos:station:TCOON:072:1,2019-06-04T12:30:00Z,27.8392,-97.4440,1.0,5.23,11111222 
TCOON,ioos:station:TCOON:072:1,2019-06-04T13:30:00Z,27.8392,-97.4440,1.0,5.1,11111222 
TCOON,ioos:station:TCOON:072:1,2019-06-04T14:30:00Z,27.8392,-97.4440,1.0,5.56,11111222 
TCOON,ioos:station:TCOON:072:1,2019-06-04T15:30:00Z,27.8392,-97.4440,1.0,5.87,11111222 
TCOON,ioos:station:TCOON:072:1,2019-06-04T16:30:00Z,27.8392,-97.4440,1.0,6.34,11111222 
TCOON,ioos:station:TCOON:072:1,2019-06-04T17:30:00Z,27.8392,-97.4440,1.0,6.59,11111222 
TCOON,ioos:station:TCOON:072:1,2019-06-04T18:30:00Z,27.8392,-97.4440,1.0,6.81,11111222 
TCOON,ioos:station:TCOON:072:1,2019-06-04T19:30:00Z,27.8392,-97.4440,1.0,6.59,11111222 
TCOON,ioos:station:TCOON:072:1,2019-06-04T20:30:00Z,27.8392,-97.4440,1.0,6.6,11111222 
TCOON,ioos:station:TCOON:072:1,2019-06-04T21:30:00Z,27.8392,-97.4440,1.0,6.68,11111222 
TCOON,ioos:station:TCOON:072:1,2019-06-04T22:30:00Z,27.8392,-97.4440,1.0,6.83,11111222 
TCOON,ioos:station:TCOON:072:1,2019-06-04T23:30:00Z,27.8392,-97.4440,1.0,6.76,11111222 
TCOON,ioos:station:TCOON:072:1,2019-06-05T00:30:00Z,27.8392,-97.4440,1.0,6.85,11111222 
TCOON,ioos:station:TCOON:072:1,2019-06-05T01:30:00Z,27.8392,-97.4440,1.0,6.75,11111222 
TCOON,ioos:station:TCOON:072:1,2019-06-05T02:30:00Z,27.8392,-97.4440,1.0,6.56,11111222 
TCOON,ioos:station:TCOON:072:1,2019-06-05T03:30:00Z,27.8392,-97.4440,1.0,6.56,11111222 
TCOON,ioos:station:TCOON:072:1,2019-06-05T04:30:00Z,27.8392,-97.4440,1.0,6.57,11111222 
TCOON,ioos:station:TCOON:072:1,2019-06-05T05:30:00Z,27.8392,-97.4440,1.0,6.42,11111222 
TCOON,ioos:station:TCOON:072:1,2019-06-05T06:30:00Z,27.8392,-97.4440,1.0,6.39,11111222 
TCOON,ioos:station:TCOON:072:1,2019-06-05T07:30:00Z,27.8392,-97.4440,1.0,6.34,11111222 
TCOON,ioos:station:TCOON:072:1,2019-06-05T08:30:00Z,27.8392,-97.4440,1.0,6.26,11111222 
TCOON,ioos:station:TCOON:072:1,2019-06-05T09:30:00Z,27.8392,-97.4440,1.0,6.26,11111222 
TCOON,ioos:station:TCOON:072:1,2019-06-05T10:30:00Z,27.8392,-97.4440,1.0,6.09,11111222 
TCOON,ioos:station:TCOON:072:1,2019-06-05T11:30:00Z,27.8392,-97.4440,1.0,5.93,11111222 
TCOON,ioos:station:TCOON:072:1,2019-06-05T12:30:00Z,27.8392,-97.4440,1.0,6.06,11111222 
TCOON,ioos:station:TCOON:072:1,2019-06-05T13:30:00Z,27.8392,-97.4440,1.0,6.06,11111222 
TCOON,ioos:station:TCOON:072:1,2019-06-05T14:30:00Z,27.8392,-97.4440,1.0,5.64,11111222 
TCOON,ioos:station:TCOON:072:1,2019-06-05T15:30:00Z,27.8392,-97.4440,1.0,6.15,11111222 
TCOON,ioos:station:TCOON:072:1,2019-06-05T16:30:00Z,27.8392,-97.4440,1.0,6.63,11111222 
TCOON,ioos:station:TCOON:072:1,2019-06-05T17:30:00Z,27.8392,-97.4440,1.0,6.68,11111222 
TCOON,ioos:station:TCOON:072:1,2019-06-05T18:30:00Z,27.8392,-97.4440,1.0,7.01,11111222 
TCOON,ioos:station:TCOON:072:1,2019-06-05T19:30:00Z,27.8392,-97.4440,1.0,7.16,11111222 
TCOON,ioos:station:TCOON:072:1,2019-06-05T20:30:00Z,27.8392,-97.4440,1.0,7.22,11111222 
TCOON,ioos:station:TCOON:072:1,2019-06-05T21:30:00Z,27.8392,-97.4440,1.0,7.32,11111222 
TCOON,ioos:station:TCOON:072:1,2019-06-05T22:30:00Z,27.8392,-97.4440,1.0,8.3,11111222 
TCOON,ioos:station:TCOON:072:1,2019-06-05T23:30:00Z,27.8392,-97.4440,1.0,8.79,11111222 
TCOON,ioos:station:TCOON:072:1,2019-06-06T00:30:00Z,27.8392,-97.4440,1.0,8.49,11111222 
TCOON,ioos:station:TCOON:072:1,2019-06-06T01:30:00Z,27.8392,-97.4440,1.0,8.16,11111222 
TCOON,ioos:station:TCOON:072:1,2019-06-06T02:30:00Z,27.8392,-97.4440,1.0,8.12,11111222 
TCOON,ioos:station:TCOON:072:1,2019-06-06T03:30:00Z,27.8392,-97.4440,1.0,7.87,11111222 
TCOON,ioos:station:TCOON:072:1,2019-06-06T04:30:00Z,27.8392,-97.4440,1.0,7.49,11111222 
TCOON,ioos:station:TCOON:072:1,2019-06-06T05:30:00Z,27.8392,-97.4440,1.0,7.36,11111222 
TCOON,ioos:station:TCOON:072:1,2019-06-06T06:30:00Z,27.8392,-97.4440,1.0,7.34,11111222 
TCOON,ioos:station:TCOON:072:1,2019-06-06T07:30:00Z,27.8392,-97.4440,1.0,7.17,11111222 
TCOON,ioos:station:TCOON:072:1,2019-06-06T08:30:00Z,27.8392,-97.4440,1.0,6.98,11111222 
TCOON,ioos:station:TCOON:072:1,2019-06-06T09:30:00Z,27.8392,-97.4440,1.0,6.83,11111222 
TCOON,ioos:station:TCOON:072:1,2019-06-06T10:30:00Z,27.8392,-97.4440,1.0,6.65,11111222 
TCOON,ioos:station:TCOON:072:1,2019-06-06T11:30:00Z,27.8392,-97.4440,1.0,6.57,11111222 
TCOON,ioos:station:TCOON:072:1,2019-06-06T12:30:00Z,27.8392,-97.4440,1.0,6.49,11111222 
TCOON,ioos:station:TCOON:072:1,2019-06-06T13:30:00Z,27.8392,-97.4440,1.0,6.43,11111222 
TCOON,ioos:station:TCOON:072:1,2019-06-06T14:30:00Z,27.8392,-97.4440,1.0,6.69,11111222 
TCOON,ioos:station:TCOON:072:1,2019-06-06T15:30:00Z,27.8392,-97.4440,1.0,6.78,11111222 
TCOON,ioos:station:TCOON:072:1,2019-06-06T16:30:00Z,27.8392,-97.4440,1.0,6.95,11111222 
TCOON,ioos:station:TCOON:072:1,2019-06-06T17:30:00Z,27.8392,-97.4440,1.0,7.26,11111222 
TCOON,ioos:station:TCOON:072:1,2019-06-06T18:30:00Z,27.8392,-97.4440,1.0,7.33,11111222 
TCOON,ioos:station:TCOON:072:1,2019-06-06T19:30:00Z,27.8392,-97.4440,1.0,7.59,11111222 
TCOON,ioos:station:TCOON:072:1,2019-06-06T20:30:00Z,27.8392,-97.4440,1.0,7.83,11111222 
TCOON,ioos:station:TCOON:072:1,2019-06-06T21:30:00Z,27.8392,-97.4440,1.0,7.88,11111222 
TCOON,ioos:station:TCOON:072:1,2019-06-06T22:30:00Z,27.8392,-97.4440,1.0,7.85,11111222 
TCOON,ioos:station:TCOON:072:1,2019-06-06T23:30:00Z,27.8392,-97.4440,1.0,7.75,11111222 
TCOON,ioos:station:TCOON:072:1,2019-06-07T00:30:00Z,27.8392,-97.4440,1.0,7.6,11111222 
TCOON,ioos:station:TCOON:072:1,2019-06-07T01:30:00Z,27.8392,-97.4440,1.0,7.35,11111222 
TCOON,ioos:station:TCOON:072:1,2019-06-07T02:30:00Z,27.8392,-97.4440,1.0,7.21,11111222 
TCOON,ioos:station:TCOON:072:1,2019-06-07T03:30:00Z,27.8392,-97.4440,1.0,6.98,11111222 
TCOON,ioos:station:TCOON:072:1,2019-06-07T04:30:00Z,27.8392,-97.4440,1.0,6.85,11111222 
TCOON,ioos:station:TCOON:072:1,2019-06-07T05:30:00Z,27.8392,-97.4440,1.0,6.8,11111222 
TCOON,ioos:station:TCOON:072:1,2019-06-07T06:30:00Z,27.8392,-97.4440,1.0,6.63,11111222 
TCOON,ioos:station:TCOON:072:1,2019-06-07T07:30:00Z,27.8392,-97.4440,1.0,6.55,11111222 
TCOON,ioos:station:TCOON:072:1,2019-06-07T08:30:00Z,27.8392,-97.4440,1.0,6.37,11111222 
TCOON,ioos:station:TCOON:072:1,2019-06-07T09:30:00Z,27.8392,-97.4440,1.0,6.14,11111222 
TCOON,ioos:station:TCOON:072:1,2019-06-07T10:30:00Z,27.8392,-97.4440,1.0,5.98,11111222 
TCOON,ioos:station:TCOON:072:1,2019-06-07T11:30:00Z,27.8392,-97.4440,1.0,5.6,11111222 
TCOON,ioos:station:TCOON:072:1,2019-06-07T12:30:00Z,27.8392,-97.4440,1.0,5.27,11111222 
TCOON,ioos:station:TCOON:072:1,2019-06-07T13:30:00Z,27.8392,-97.4440,1.0,6.06,11111222 
TCOON,ioos:station:TCOON:072:1,2019-06-07T14:30:00Z,27.8392,-97.4440,1.0,6.01,11111222 
TCOON,ioos:station:TCOON:072:1,2019-06-07T15:30:00Z,27.8392,-97.4440,1.0,6.26,11111222 
TCOON,ioos:station:TCOON:072:1,2019-06-07T16:30:00Z,27.8392,-97.4440,1.0,6.24,11111222 
TCOON,ioos:station:TCOON:072:1,2019-06-07T17:30:00Z,27.8392,-97.4440,1.0,6.8,11111222 
TCOON,ioos:station:TCOON:072:1,2019-06-07T18:30:00Z,27.8392,-97.4440,1.0,6.79,11111222 
TCOON,ioos:station:TCOON:072:1,2019-06-07T19:30:00Z,27.8392,-97.4440,1.0,6.58,11111222 
TCOON,ioos:station:TCOON:072:1,2019-06-07T20:30:00Z,27.8392,-97.4440,1.0,6.76,11111222 
TCOON,ioos:station:TCOON:072:1,2019-06-07T21:30:00Z,27.8392,-97.4440,1.0,6.75,11111222 
TCOON,ioos:station:TCOON:072:1,2019-06-07T22:30:00Z,27.8392,-97.4440,1.0,7.33,11111222 
TCOON,ioos:station:TCOON:072:1,2019-06-07T23:30:00Z,27.8392,-97.4440,1.0,7.64,11111222 
TCOON,ioos:station:TCOON:072:1,2019-06-08T00:30:00Z,27.8392,-97.4440,1.0,7.49,11111222 
TCOON,ioos:station:TCOON:072:1,2019-06-08T01:30:00Z,27.8392,-97.4440,1.0,7.58,11111222 
TCOON,ioos:station:TCOON:072:1,2019-06-08T02:30:00Z,27.8392,-97.4440,1.0,7.14,11111222 
TCOON,ioos:station:TCOON:072:1,2019-06-08T03:30:00Z,27.8392,-97.4440,1.0,7.03,11111222 
TCOON,ioos:station:TCOON:072:1,2019-06-08T04:30:00Z,27.8392,-97.4440,1.0,6.85,11111222 
TCOON,ioos:station:TCOON:072:1,2019-06-08T05:30:00Z,27.8392,-97.4440,1.0,6.7,11111222 
TCOON,ioos:station:TCOON:072:1,2019-06-08T06:30:00Z,27.8392,-97.4440,1.0,6.38,11111222 
TCOON,ioos:station:TCOON:072:1,2019-06-08T07:30:00Z,27.8392,-97.4440,1.0,6.75,11111222 
TCOON,ioos:station:TCOON:072:1,2019-06-08T08:30:00Z,27.8392,-97.4440,1.0,6.47,11111222 
TCOON,ioos:station:TCOON:072:1,2019-06-08T09:30:00Z,27.8392,-97.4440,1.0,6.31,11111222 
TCOON,ioos:station:TCOON:072:1,2019-06-08T10:30:00Z,27.8392,-97.4440,1.0,5.78,11111222 
TCOON,ioos:station:TCOON:072:1,2019-06-08T11:30:00Z,27.8392,-97.4440,1.0,5.18,11111222 
TCOON,ioos:station:TCOON:072:1,2019-06-08T12:30:00Z,27.8392,-97.4440,1.0,5.66,11111222 
TCOON,ioos:station:TCOON:072:1,2019-06-08T13:30:00Z,27.8392,-97.4440,1.0,5.71,11111222 
TCOON,ioos:station:TCOON:072:1,2019-06-08T14:30:00Z,27.8392,-97.4440,1.0,6.03,11111222 
TCOON,ioos:station:TCOON:072:1,2019-06-08T15:30:00Z,27.8392,-97.4440,1.0,6.09,11111222 
TCOON,ioos:station:TCOON:072:1,2019-06-08T16:30:00Z,27.8392,-97.4440,1.0,6.13,11111222 
TCOON,ioos:station:TCOON:072:1,2019-06-08T17:30:00Z,27.8392,-97.4440,1.0,6.18,11111222 
TCOON,ioos:station:TCOON:072:1,2019-06-08T18:30:00Z,27.8392,-97.4440,1.0,5.49,11111222 
TCOON,ioos:station:TCOON:072:1,2019-06-09T00:30:00Z,27.8392,-97.4440,1.0,6.83,11111222 
TCOON,ioos:station:TCOON:072:1,2019-06-09T01:30:00Z,27.8392,-97.4440,1.0,6.35,11111222 
TCOON,ioos:station:TCOON:072:1,2019-06-09T02:30:00Z,27.8392,-97.4440,1.0,5.08,11111222 
TCOON,ioos:station:TCOON:072:1,2019-06-09T03:30:00Z,27.8392,-97.4440,1.0,3.41,11111222 
TCOON,ioos:station:TCOON:072:1,2019-06-09T04:30:00Z,27.8392,-97.4440,1.0,4.83,11111222 
TCOON,ioos:station:TCOON:072:1,2019-06-09T05:30:00Z,27.8392,-97.4440,1.0,5.46,11111222 
TCOON,ioos:station:TCOON:072:1,2019-06-09T06:30:00Z,27.8392,-97.4440,1.0,5.59,11111222 
TCOON,ioos:station:TCOON:072:1,2019-06-09T07:30:00Z,27.8392,-97.4440,1.0,5.48,11111222 
TCOON,ioos:station:TCOON:072:1,2019-06-09T08:30:00Z,27.8392,-97.4440,1.0,5.61,11111222 
TCOON,ioos:station:TCOON:072:1,2019-06-09T09:30:00Z,27.8392,-97.4440,1.0,5.7,11111222 
TCOON,ioos:station:TCOON:072:1,2019-06-09T10:30:00Z,27.8392,-97.4440,1.0,5.63,11111222 
TCOON,ioos:station:TCOON:072:1,2019-06-09T11:30:00Z,27.8392,-97.4440,1.0,5.4,11111222 
TCOON,ioos:station:TCOON:072:1,2019-06-09T12:30:00Z,27.8392,-97.4440,1.0,5.4,11111222 
TCOON,ioos:station:TCOON:072:1,2019-06-09T13:30:00Z,27.8392,-97.4440,1.0,5.55,11111222 
TCOON,ioos:station:TCOON:072:1,2019-06-09T14:30:00Z,27.8392,-97.4440,1.0,5.84,11111222 
TCOON,ioos:station:TCOON:072:1,2019-06-09T15:30:00Z,27.8392,-97.4440,1.0,6.39,11111222 
TCOON,ioos:station:TCOON:072:1,2019-06-09T16:30:00Z,27.8392,-97.4440,1.0,6.42,11111222 
TCOON,ioos:station:TCOON:072:1,2019-06-09T17:30:00Z,27.8392,-97.4440,1.0,6.41,11111222 
TCOON,ioos:station:TCOON:072:1,2019-06-09T18:30:00Z,27.8392,-97.4440,1.0,6.58,11111222 
TCOON,ioos:station:TCOON:072:1,2019-06-09T19:30:00Z,27.8392,-97.4440,1.0,6.67,11111222 
TCOON,ioos:station:TCOON:072:1,2019-06-09T20:30:00Z,27.8392,-97.4440,1.0,6.66,11111222 
TCOON,ioos:station:TCOON:072:1,2019-06-09T21:30:00Z,27.8392,-97.4440,1.0,7.04,11111222 
TCOON,ioos:station:TCOON:072:1,2019-06-09T22:30:00Z,27.8392,-97.4440,1.0,6.96,11111222 
TCOON,ioos:station:TCOON:072:1,2019-06-09T23:30:00Z,27.8392,-97.4440,1.0,7.24,11111222 
TCOON,ioos:station:TCOON:072:1,2019-06-10T00:30:00Z,27.8392,-97.4440,1.0,7.05,11111222 
TCOON,ioos:station:TCOON:072:1,2019-06-10T01:30:00Z,27.8392,-97.4440,1.0,6.83,11111222 
TCOON,ioos:station:TCOON:072:1,2019-06-10T02:30:00Z,27.8392,-97.4440,1.0,6.68,11111222 
TCOON,ioos:station:TCOON:072:1,2019-06-10T03:30:00Z,27.8392,-97.4440,1.0,6.56,11111222 
TCOON,ioos:station:TCOON:072:1,2019-06-10T04:30:00Z,27.8392,-97.4440,1.0,6.91,11111222 
TCOON,ioos:station:TCOON:072:1,2019-06-10T05:30:00Z,27.8392,-97.4440,1.0,6.32,11111222 
TCOON,ioos:station:TCOON:072:1,2019-06-10T06:30:00Z,27.8392,-97.4440,1.0,5.81,11111222 
TCOON,ioos:station:TCOON:072:1,2019-06-10T07:30:00Z,27.8392,-97.4440,1.0,5.89,11111222 
TCOON,ioos:station:TCOON:072:1,2019-06-10T08:30:00Z,27.8392,-97.4440,1.0,5.98,11111222 
TCOON,ioos:station:TCOON:072:1,2019-06-10T09:30:00Z,27.8392,-97.4440,1.0,5.71,11111222 
TCOON,ioos:station:TCOON:072:1,2019-06-10T10:30:00Z,27.8392,-97.4440,1.0,5.64,11111222 
TCOON,ioos:station:TCOON:072:1,2019-06-10T11:30:00Z,27.8392,-97.4440,1.0,5.7,11111222 
TCOON,ioos:station:TCOON:072:1,2019-06-10T12:30:00Z,27.8392,-97.4440,1.0,5.92,11111222 
TCOON,ioos:station:TCOON:072:1,2019-06-10T13:30:00Z,27.8392,-97.4440,1.0,5.36,11111222 
TCOON,ioos:station:TCOON:072:1,2019-06-10T14:30:00Z,27.8392,-97.4440,1.0,5.62,11111222 
TCOON,ioos:station:TCOON:072:1,2019-06-10T15:30:00Z,27.8392,-97.4440,1.0,5.94,11111222 
TCOON,ioos:station:TCOON:072:1,2019-06-10T16:30:00Z,27.8392,-97.4440,1.0,6.19,11111222 
TCOON,ioos:station:TCOON:072:1,2019-06-10T17:30:00Z,27.8392,-97.4440,1.0,6.25,11111222 
TCOON,ioos:station:TCOON:072:1,2019-06-10T18:30:00Z,27.8392,-97.4440,1.0,6.89,11111222 
TCOON,ioos:station:TCOON:072:1,2019-06-10T19:30:00Z,27.8392,-97.4440,1.0,7.26,11111222 
TCOON,ioos:station:TCOON:072:1,2019-06-10T20:30:00Z,27.8392,-97.4440,1.0,7.01,11111222 
TCOON,ioos:station:TCOON:072:1,2019-06-10T21:30:00Z,27.8392,-97.4440,1.0,7.36,11111222 
TCOON,ioos:station:TCOON:072:1,2019-06-10T22:30:00Z,27.8392,-97.4440,1.0,7.34,11111222 
TCOON,ioos:station:TCOON:072:1,2019-06-10T23:30:00Z,27.8392,-97.4440,1.0,7.18,11111222 
TCOON,ioos:station:TCOON:072:1,2019-06-11T00:30:00Z,27.8392,-97.4440,1.0,7.21,11111222 
TCOON,ioos:station:TCOON:072:1,2019-06-11T01:30:00Z,27.8392,-97.4440,1.0,7.1,11111222 
TCOON,ioos:station:TCOON:072:1,2019-06-11T02:30:00Z,27.8392,-97.4440,1.0,6.84,11111222 
TCOON,ioos:station:TCOON:072:1,2019-06-11T03:30:00Z,27.8392,-97.4440,1.0,6.49,11111222 
TCOON,ioos:station:TCOON:072:1,2019-06-11T04:30:00Z,27.8392,-97.4440,1.0,6.3,11111222 
TCOON,ioos:station:TCOON:072:1,2019-06-11T05:30:00Z,27.8392,-97.4440,1.0,6.34,11111222 
TCOON,ioos:station:TCOON:072:1,2019-06-11T06:30:00Z,27.8392,-97.4440,1.0,6.02,11111222 
TCOON,ioos:station:TCOON:072:1,2019-06-11T07:30:00Z,27.8392,-97.4440,1.0,6.16,11111222 
TCOON,ioos:station:TCOON:072:1,2019-06-11T08:30:00Z,27.8392,-97.4440,1.0,6.21,11111222 
TCOON,ioos:station:TCOON:072:1,2019-06-11T09:30:00Z,27.8392,-97.4440,1.0,5.84,11111222 
TCOON,ioos:station:TCOON:072:1,2019-06-11T10:30:00Z,27.8392,-97.4440,1.0,5.86,11111222 
TCOON,ioos:station:TCOON:072:1,2019-06-11T11:30:00Z,27.8392,-97.4440,1.0,5.69,11111222 
TCOON,ioos:station:TCOON:072:1,2019-06-11T13:00:00Z,27.8392,-97.4440,1.0,5.74,11111222 
TCOON,ioos:station:TCOON:072:1,2019-06-11T13:30:00Z,27.8392,-97.4440,1.0,5.82,11111222 
TCOON,ioos:station:TCOON:072:1,2019-06-11T14:30:00Z,27.8392,-97.4440,1.0,5.81,11111222 
TCOON,ioos:station:TCOON:072:1,2019-06-11T15:30:00Z,27.8392,-97.4440,1.0,6.42,11111222 
TCOON,ioos:station:TCOON:072:1,2019-06-11T16:30:00Z,27.8392,-97.4440,1.0,7.01,11111222 
TCOON,ioos:station:TCOON:072:1,2019-06-11T19:30:00Z,27.8392,-97.4440,1.0,8.22,11111222 
TCOON,ioos:station:TCOON:072:1,2019-06-11T20:30:00Z,27.8392,-97.4440,1.0,8.75,11111222 
TCOON,ioos:station:TCOON:072:1,2019-06-11T21:30:00Z,27.8392,-97.4440,1.0,9.09,11111222 
TCOON,ioos:station:TCOON:072:1,2019-06-11T22:30:00Z,27.8392,-97.4440,1.0,8.78,11111222 
TCOON,ioos:station:TCOON:072:1,2019-06-11T23:30:00Z,27.8392,-97.4440,1.0,8.29,11111222 
TCOON,ioos:station:TCOON:072:1,2019-06-12T00:30:00Z,27.8392,-97.4440,1.0,7.9,11111222 
TCOON,ioos:station:TCOON:072:1,2019-06-12T01:30:00Z,27.8392,-97.4440,1.0,7.67,11111222 
TCOON,ioos:station:TCOON:072:1,2019-06-12T02:30:00Z,27.8392,-97.4440,1.0,7.84,11111222 
TCOON,ioos:station:TCOON:072:1,2019-06-12T03:30:00Z,27.8392,-97.4440,1.0,7.72,11111222 
TCOON,ioos:station:TCOON:072:1,2019-06-12T04:30:00Z,27.8392,-97.4440,1.0,7.39,11111222 
TCOON,ioos:station:TCOON:072:1,2019-06-12T05:30:00Z,27.8392,-97.4440,1.0,6.69,11111222 
TCOON,ioos:station:TCOON:072:1,2019-06-12T06:30:00Z,27.8392,-97.4440,1.0,6.71,11111222 
TCOON,ioos:station:TCOON:072:1,2019-06-12T07:30:00Z,27.8392,-97.4440,1.0,5.86,11111222 
TCOON,ioos:station:TCOON:072:1,2019-06-12T08:30:00Z,27.8392,-97.4440,1.0,6.24,11111222 
TCOON,ioos:station:TCOON:072:1,2019-06-12T09:30:00Z,27.8392,-97.4440,1.0,5.99,11111222 
TCOON,ioos:station:TCOON:072:1,2019-06-12T10:30:00Z,27.8392,-97.4440,1.0,5.51,11111222 
TCOON,ioos:station:TCOON:072:1,2019-06-12T11:30:00Z,27.8392,-97.4440,1.0,5.86,11111222 
TCOON,ioos:station:TCOON:072:1,2019-06-12T12:30:00Z,27.8392,-97.4440,1.0,5.54,11111222 
TCOON,ioos:station:TCOON:072:1,2019-06-12T13:30:00Z,27.8392,-97.4440,1.0,5.61,11111222 